Location: *
(58.7167°N, 26.1833°E)
Time: 01:03:59
(UTC+00:00)

Cosmos 1340 - Pass Details

Date: 25 August 2019
Orbit: 503 x 506 km, 81.2° (Epoch: 19 September)

Event Time Altitude Azimuth Distance (km) Brightness Sun altitude
Exits shadow 20:31:00 - 225° (SW) 2,146 5.7 -17.4°
Reaches altitude 10° 20:32:08 10° 232° (SW) 1,719 5.2 -17.4°
Maximum altitude 20:35:33 32° 297° (WNW) 887 4.4 -17.6°
Drops below altitude 10° 20:39:00 10° 2° (N) 1,733 6.3 -17.8°
Sets 20:41:19 0° 13° (NNE) 2,623 7.1 -18.0°
